Date String (YYYY-MM-DD hh:mm:ss) UTC,Instrument flags,absolute air pressure of the measurement (hPa),sample flow rate (lpm),inlet stack bypass flow (lpm),air temperature of the measurement (°C),ambient temperature measured by the external sensor (°C),aerosol sample conditioner tube jacket temperature (°C),OPC LED temperature (°C),internal box temperature (°C),relative humidity of the measurement (%),span deviation,mass concentration of particles derived from Lorenz-Mie calculation of OPC scattering (μg/m³),mass concentration of particles derived from Lorenz-Mie calculation of OPC scattering (μg/m³),mass concentration of particles derived from Lorenz-Mie calculation of OPC scattering (μg/m³)
DateTimeUTC,F1_M11,P_M11,Q1_M11,Q2_M11,T1_M11,T2_M11,T3_M11,T4_M11,T5_M11,U1_M11,ZSPAN_M11,X0_M11,X2_M11,X1_M11
2023-12-30 01:00:00,SystemResetWarning,0832.7,5.00,000.00,025.4,024.4,000.0,033.7,026.7,7.3,0000.0,0010.77,0001.55,0000.83
2023-12-30 01:01:00,SystemResetWarning,0832.7,4.99,000.00,025.4,024.4,000.0,033.7,026.7,7.3,0000.0,0011.00,0001.56,0000.84
2023-12-30 01:02:00,SystemResetWarning,0832.7,5.00,000.00,025.4,024.4,000.0,033.7,026.7,7.3,0000.0,0010.85,0001.50,0000.83
2023-12-30 01:03:00,SystemResetWarning,0832.7,5.00,000.00,025.4,024.4,000.0,033.7,026.7,7.3,0000.0,0009.51,0001.44,0000.81
2023-12-30 01:04:00,SystemResetWarning,0832.7,5.01,000.00,025.4,024.3,000.0,033.7,026.7,7.3,0000.0,0007.63,0001.38,0000.79
2023-12-30 01:05:00,SystemResetWarning,0832.7,5.00,000.00,025.4,024.3,000.0,033.7,026.7,7.3,0000.0,0006.41,0001.30,0000.77
2023-12-30 01:06:00,SystemResetWarning,0832.7,5.00,000.00,025.4,024.3,000.0,033.7,026.7,7.3,0000.0,0006.08,0001.24,0000.74
2023-12-30 01:07:00,SystemResetWarning,0832.7,4.99,000.00,025.4,024.3,000.0,033.7,026.7,7.3,0000.0,0006.10,0001.17,0000.71
2023-12-30 01:08:00,SystemResetWarning,0832.7,5.00,000.00,025.4,024.3,000.0,033.7,026.7,7.3,0000.0,0003.97,0001.18,0000.69
2023-12-30 01:09:00,SystemResetWarning,0832.7,5.00,000.00,025.4,024.3,000.0,033.7,026.7,7.3,0000.0,0004.02,0001.19,0000.69
2023-12-30 01:10:00,SystemResetWarning,0832.7,4.99,000.00,025.4,024.3,000.0,033.7,026.7,7.3,0000.0,0004.02,0001.20,0000.69
2023-12-30 01:11:00,SystemResetWarning,0832.7,4.99,000.00,025.4,024.3,000.0,033.7,026.7,7.3,0000.0,0004.43,0001.19,0000.69
2023-12-30 01:12:00,SystemResetWarning,0832.7,5.02,000.00,025.4,024.3,000.0,033.7,026.7,7.4,0000.0,0003.85,0001.22,0000.70
2023-12-30 01:13:00,SystemResetWarning,0832.7,5.01,000.00,025.4,024.3,000.0,033.7,026.7,7.4,0000.0,0003.81,0001.21,0000.70
2023-12-30 01:14:00,SystemResetWarning,0832.7,4.98,000.00,025.4,024.3,000.0,033.7,026.7,7.4,0000.0,0003.79,0001.18,0000.71
2023-12-30 01:15:00,SystemResetWarning,0832.7,5.00,000.00,025.4,024.3,000.0,033.7,026.7,7.3,0000.0,0004.87,0001.19,0000.73
2023-12-30 01:16:00,SystemResetWarning,0832.7,5.01,000.00,025.4,024.3,000.0,033.7,026.6,7.3,0000.0,0006.26,0001.21,0000.75
2023-12-30 01:17:00,SystemResetWarning,0832.7,5.00,000.00,025.4,024.3,000.0,033.7,026.6,7.3,0000.0,0006.44,0001.26,0000.77
2023-12-30 01:18:00,SystemResetWarning,0832.7,4.99,000.00,025.3,024.3,000.0,033.7,026.6,7.3,0000.0,0006.45,0001.31,0000.79
2023-12-30 01:19:00,SystemResetWarning,0832.7,5.00,000.00,025.3,024.3,000.0,033.7,026.6,7.3,0000.0,0007.27,0001.36,0000.80
2023-12-30 01:20:00,SystemResetWarning,0832.7,5.01,000.00,025.3,024.3,000.0,033.7,026.6,7.3,0000.0,0008.01,0001.42,0000.81
2023-12-30 01:21:00,SystemResetWarning,0832.7,5.01,000.00,025.3,024.3,000.0,033.6,026.6,7.3,0000.0,0008.26,0001.44,0000.82
2023-12-30 01:22:00,SystemResetWarning,0832.7,5.00,000.00,025.3,024.3,000.0,033.6,026.6,7.3,0000.0,0008.14,0001.46,0000.83
2023-12-30 01:23:00,SystemResetWarning,0832.7,4.99,000.00,025.3,024.3,000.0,033.6,026.6,7.3,0000.0,0008.06,0001.43,0000.84
2023-12-30 01:24:00,SystemResetWarning,0832.6,4.99,000.00,025.3,024.2,000.0,033.6,026.6,7.3,0000.0,0008.85,0001.47,0000.84
2023-12-30 01:25:00,SystemResetWarning,0832.7,5.00,000.00,025.3,024.2,000.0,033.6,026.6,7.3,0000.0,0009.35,0001.54,0000.85
2023-12-30 01:26:00,SystemResetWarning,0832.7,5.01,000.00,025.3,024.2,000.0,033.6,026.6,7.3,0000.0,0009.18,0001.60,0000.85
2023-12-30 01:27:00,SystemResetWarning,0832.7,5.01,000.00,025.3,024.2,000.0,033.6,026.6,7.3,0000.0,0008.13,0001.63,0000.86
2023-12-30 01:28:00,SystemResetWarning,0832.7,5.00,000.00,025.3,024.2,000.0,033.6,026.6,7.4,0000.0,0008.87,0001.68,0000.86
2023-12-30 01:29:00,SystemResetWarning,0832.7,5.00,000.00,025.3,024.1,000.0,033.6,026.6,7.4,0000.0,0009.45,0001.69,0000.86
2023-12-30 01:30:00,SystemResetWarning,0832.7,5.00,000.00,025.3,024.1,000.0,033.6,026.6,7.4,0000.0,0009.79,0001.65,0000.86
2023-12-30 01:31:00,SystemResetWarning,0832.7,5.00,000.00,025.3,024.1,000.0,033.6,026.6,7.4,0000.0,0009.15,0001.64,0000.85
2023-12-30 01:32:00,SystemResetWarning,0832.7,4.99,000.00,025.3,024.1,000.0,033.6,026.6,7.4,0000.0,0008.91,0001.64,0000.82
2023-12-30 01:33:00,SystemResetWarning,0832.7,5.00,000.00,025.3,024.1,000.0,033.6,026.6,7.4,0000.0,0009.11,0001.71,0000.80
2023-12-30 01:34:00,SystemResetWarning,0832.8,4.99,000.00,025.2,024.0,000.0,033.6,026.6,7.4,0000.0,0009.54,0001.77,0000.78
2023-12-30 01:35:00,SystemResetWarning,0832.8,4.99,000.00,025.2,024.0,000.0,033.6,026.6,7.4,0000.0,0009.01,0001.78,0000.76
2023-12-30 01:36:00,SystemResetWarning,0832.7,5.01,000.00,025.2,024.0,000.0,033.6,026.5,7.5,0000.0,0008.57,0001.78,0000.76
2023-12-30 01:37:00,SystemResetWarning,0832.8,5.00,000.00,025.2,024.0,000.0,033.5,026.5,7.5,0000.0,0008.45,0001.71,0000.75
2023-12-30 01:38:00,SystemResetWarning,0832.9,5.00,000.00,025.2,023.9,000.0,033.5,026.5,7.5,0000.0,0008.52,0001.70,0000.73
2023-12-30 01:39:00,SystemResetWarning,0832.7,5.01,000.00,025.2,023.9,000.0,033.5,026.5,7.5,0000.0,0007.89,0001.72,0000.73
2023-12-30 01:40:00,SystemResetWarning,0832.8,4.99,000.00,025.2,023.9,000.0,033.5,026.5,7.5,0000.0,0007.57,0001.67,0000.73
2023-12-30 01:41:00,SystemResetWarning,0832.8,4.99,000.00,025.2,023.9,000.0,033.5,026.4,7.5,0000.0,0007.42,0001.68,0000.74
2023-12-30 01:42:00,SystemResetWarning,0832.8,5.00,000.00,025.1,023.8,000.0,033.5,026.4,7.5,0000.0,0009.26,0001.68,0000.74
2023-12-30 01:43:00,SystemResetWarning,0832.8,5.00,000.00,025.1,023.8,000.0,033.5,026.4,7.5,0000.0,0010.19,0001.63,0000.75
2023-12-30 01:44:00,SystemResetWarning,0832.8,5.01,000.00,025.1,023.8,000.0,033.5,026.4,7.5,0000.0,0010.58,0001.55,0000.75
2023-12-30 01:45:00,SystemResetWarning,0832.8,5.00,000.00,025.1,023.8,000.0,033.5,026.4,7.5,0000.0,0010.46,0001.50,0000.75
2023-12-30 01:46:00,SystemResetWarning,0832.8,5.00,000.00,025.1,023.8,000.0,033.5,026.4,7.5,0000.0,0010.78,0001.48,0000.76
2023-12-30 01:47:00,SystemResetWarning,0832.9,4.99,000.00,025.1,023.8,000.0,033.5,026.4,7.5,0000.0,0010.67,0001.43,0000.76
2023-12-30 01:48:00,SystemResetWarning,0832.8,5.00,000.00,025.1,023.8,000.0,033.4,026.4,7.6,0000.0,0011.06,0001.46,0000.76
2023-12-30 01:49:00,SystemResetWarning,0832.8,5.01,000.00,025.1,023.8,000.0,033.4,026.4,7.6,0000.0,0011.45,0001.48,0000.78
2023-12-30 01:50:00,SystemResetWarning,0832.8,4.99,000.00,025.1,023.8,000.0,033.4,026.4,7.6,0000.0,0011.77,0001.41,0000.78
2023-12-30 01:51:00,SystemResetWarning,0832.8,4.99,000.00,025.1,023.8,000.0,033.4,026.4,7.6,0000.0,0012.79,0001.46,0000.79
2023-12-30 01:52:00,SystemResetWarning,0832.8,5.00,000.00,025.1,023.8,000.0,033.4,026.4,7.6,0000.0,0012.56,0001.54,0000.79
2023-12-30 01:53:00,SystemResetWarning,0832.8,5.01,000.00,025.0,023.7,000.0,033.4,026.3,7.6,0000.0,0010.71,0001.50,0000.80
2023-12-30 01:54:00,SystemResetWarning,0832.8,5.01,000.00,025.0,023.7,000.0,033.4,026.3,7.7,0000.0,0009.72,0001.49,0000.80
2023-12-30 01:55:00,SystemResetWarning,0832.8,5.00,000.00,025.0,023.7,000.0,033.4,026.3,7.7,0000.0,0008.81,0001.49,0000.80
2023-12-30 01:56:00,SystemResetWarning,0832.7,4.99,000.00,025.0,023.7,000.0,033.4,026.3,7.7,0000.0,0008.43,0001.49,0000.79
2023-12-30 01:57:00,SystemResetWarning,0832.8,4.99,000.00,025.0,023.6,000.0,033.4,026.3,7.7,0000.0,0007.79,0001.47,0000.80
2023-12-30 01:58:00,SystemResetWarning,0832.8,5.00,000.00,025.0,023.6,000.0,033.3,026.3,7.7,0000.0,0008.20,0001.50,0000.81
2023-12-30 01:59:00,SystemResetWarning,0832.8,5.01,000.00,024.9,023.6,000.0,033.3,026.2,7.7,0000.0,0007.87,0001.51,0000.81
